SCP
-0 0 0 0 0 0 0 0 0 0 0 0 0 0 0 0 0 0 0 0 0 0 0 0 0 0 0 0 0 0 0 0 0 0 0 0 0 0 0 0 0 0 0 0
0 0 0 0 0 0 0 0 -0 -0 0 0 0 0 0 0 0 0 0 0 0 0 0 0 0 0 0 0 0 0 0 0 0 0 0 0 0 0 0 0 0 0 0 0
-0 0 0 0 0 0 0 0 0 0 0 -0 -0 0 0 0 0 0 0 0 0 0 0 0 0 0 0 0 0 0 0 0 0 0 0 0 0 0 0 0 0 0 0 0
0 0 0 0 0 0 0 0 0 0 0 -0 -0 -0 0 0 0 0 0 0 0 0 0 0 0 0 0 0 0 0 0 0 0 0 0 0 0 0 0 0 0 0 0 0
0 0 0 0 0 0 0 0 0 0 0 0 0 -0 -0 0 0 0 0 0 0 0 -0 -0 0 0 0 0 0 0 0 0 0 0 0 0 0 0 0 0 0 0 0 0
0 0 0 0 0 0 0 0 0 0 0 0 0 -0 -0 0 0 0 0 0 0 0 0 0 0 0 0 0 0 0 0 0 0 0 0 0 0 0 0 0 0 0 0 0
0 0 0 0 0 0 0 0 0 0 0 0 0 0 -0 0 0 0 0 0 0 0 0 0 0 0 0 0 0 0 0 0 0 0 0 0 0 0 0 0 0 0 0 0
0 0 0 0 0 0 0 0 0 0 0 0 0 0 0 0 0 0 0 0 0 0 0 0 0 0 0 0 0 0 0 0 0 0 0 0 0 0 0 0 0 0 0 0
0 0 0 0 0 0 0 0 0 0 0 0 0 0 0 0 0 0 0 0 0 0 0 0 0 0 0 0 0 0 0 0 0 0 0 0 0 0 0 0 0 0 0 0
0 0 0 0 0 0 0 0 0 0 0 0 0 0 0 0 0 0 0 -0 0 0 0 0 0 0 0 0 0 0 0 0 0 0 0 0 0 0 0 0 0 0 0 0
0 0 0 0 0 0 0 0 0 0 0 0 0 0 0 0 0 0 0 -0 -0 0 0 0 0 0 0 0 0 0 0 0 0 0 0 0 0 0 0 0 0 0 0 0
0 0 0 0 0 0 0 0 0 0 0 0 0 0 0 0 0 -0 -0 -0 -0 -0 -0 0 0 0 0 0 0 0 0 0 0 0 0 0 0 0 0 0 0 0 0 0
0 0 0 0 0 0 0 0 0 0 0 0 0 0 0 0 0 0 0 0 -0 -0 0 0 0 0 0 0 0 0 0 0 0 0 0 0 0 0 0 0 0 0 0 0
0 0 0 0 0 0 0 0 0 0 0 0 0 -0 -0 -0 0 0 0 0 0 0 0 0 0 0 0 0 0 0 0 0 0 0 0 0 0 0 0 0 0 0 0 0
0 0 0 0 0 0 0 0 0 0 0 0 0 0 0 0 0 0 0 0 0 0 0 0 0 0 0 0 0 0 0 0 0 0 0 0 0 0 0 0 0 0 0 0
0 0 0 0 0 0 0 0 0 0 0 0 0 0 0 0 0 0 0 0 0 0 0 0 0 0 0 0 0 -0 0 0 0 0 0 0 0 0 0 0 0 0 0 0
0 0 0 0 0 0 0 0 0 0 0 0 0 0 0 0 0 0 0 0 0 0 0 0 0 0 0 0 -0 -0 0 0 0 0 0 0 0 0 0 0 0 0 0 0
0 0 0 0 0 0 0 0 0 0 0 0 0 0 0 0 0 0 0 0 0 -0 -0 0 0 0 0 0 0 -0 0 0 0 0 0 0 0 0 0 0 0 0 0 0
0 0 0 0 0 0 0 0 0 0 0 0 0 0 0 0 0 0 0 0 0 0 0 0 0 0 0 0 0 0 0 0 0 0 0 0 0 0 0 0 0 0 0 0
0 0 0 0 0 0 0 0 0 0 0 0 0 0 0 0 0 0 0 -0 0 -0 0 0 -0 0 0 0 0 0 0 0 0 0 0 0 0 0 0 0 0 0 0 0
0 0 0 0 0 0 0 0 0 0 0 0 0 0 0 0 0 0 0 0 0 -0 0 -0 -0 0 0 0 0 0 0 0 0 0 0 0 0 0 0 0 0 0 0 0
0 0 0 0 0 0 0 0 0 0 0 0 0 0 0 0 0 0 0 0 -0 -0 -0 -0 -0 0 0 0 0 0 0 0 0 0 0 0 0 0 0 0 0 0 0 0
0 0 0 0 0 0 0 0 0 0 0 0 0 0 0 0 0 0 0 0 0 -0 -0 -0 -0 -0 -0 -0 -0 0 0 0 0 0 0 0 0 0 0 0 0 0 0 0
0 0 0 0 0 0 0 0 0 0 0 0 0 0 0 0 0 0 0 0 0 -0 -0 -0 -0 -0 -0 0 0 0 0 0 0 0 0 0 0 0 0 0 0 0 0 0
0 0 0 0 0 0 0 0 0 0 0 0 0 0 0 0 0 0 0 0 0 0 0 0 -0 0 0 0 0 -0 0 0 0 -0 0 0 0 0 0 0 0 0 0 0
0 0 0 0 0 0 0 0 0 0 0 0 0 0 0 0 0 0 0 0 0 0 0 0 0 -0 -0 -0 -0 0 0 -0 -0 -0 0 0 0 0 0 0 0 0 0 0
Wind_Speed_500mb
16 18 15 12 8 11 12 14 18 22 28 38 31 28 22 33 50 31 40 41 34 21 7 30 68 72 72 86 85 85 85 83 83 80 83 81 83 70 66 66 61 58 54 46
14 10 12 12 14 15 16 13 14 19 37 34 33 42 28 29 31 44 46 48 50 43 37 26 26 64 78 71 80 91 90 87 86 85 85 87 83 74 67 68 67 66 59 50
7 6 19 13 16 17 17 12 16 23 34 24 25 19 14 18 34 41 43 45 48 50 52 51 44 33 60 81 78 82 90 93 88 85 81 90 81 72 75 77 76 71 66 57
2 9 10 17 10 7 18 10 25 33 26 10 16 14 29 39 26 13 28 37 48 58 65 68 68 59 44 52 82 87 88 90 90 87 86 86 95 98 95 88 85 79 70 62
9 10 19 12 8 5 15 16 21 35 28 11 10 9 13 18 21 24 29 48 37 45 42 53 62 69 67 46 57 84 92 92 96 94 89 86 88 89 81 79 83 87 76 69
12 15 5 7 8 8 17 12 29 7 1 4 13 4 9 10 5 26 48 34 29 42 27 36 13 44 38 28 33 70 80 85 94 93 94 89 85 82 78 78 70 82 85 79
13 9 8 2 9 11 11 10 8 11 8 10 10 15 12 34 27 28 16 35 47 52 54 52 51 21 10 68 66 44 42 68 82 90 93 93 88 80 77 72 70 68 83 86
5 16 3 3 2 9 10 8 6 10 9 24 25 14 13 20 26 9 16 25 44 64 61 47 48 49 51 35 21 53 52 52 53 74 85 91 90 85 76 66 65 70 69 71
6 11 9 8 6 2 6 3 11 9 23 10 10 15 18 34 11 9 26 39 46 61 69 47 48 50 52 51 43 24 36 63 71 75 81 83 85 80 75 70 55 62 65 61
5 13 7 10 9 12 9 6 5 5 9 11 12 24 21 19 17 14 25 32 48 57 67 61 59 54 57 58 55 44 27 28 65 76 83 74 75 77 70 60 57 70 66 68
7 8 12 8 5 6 8 6 3 5 5 8 18 19 12 22 10 20 27 33 46 56 72 62 66 64 66 64 61 52 43 31 30 61 76 81 77 62 67 65 62 69 71 78
12 7 9 18 20 15 12 8 7 5 8 8 17 35 11 37 24 33 46 67 68 69 68 77 81 70 65 65 60 53 49 35 36 38 59 75 74 73 74 68 50 86 111 83
7 5 10 19 12 10 3 8 1 6 7 27 14 26 6 23 48 69 71 78 71 60 76 86 76 69 64 59 52 55 48 43 35 44 37 61 72 71 69 71 63 76 62 63
11 10 16 16 19 4 29 27 26 13 14 26 39 66 68 57 45 57 53 63 71 80 79 75 69 59 54 52 47 51 47 44 39 37 49 41 62 74 78 72 66 60 57 61
12 11 13 33 42 39 48 53 39 34 44 25 66 38 57 56 50 60 71 63 66 74 76 69 66 60 55 44 45 48 46 40 39 32 36 53 50 65 70 77 76 77 71 69
3 10 6 32 31 33 46 48 41 42 43 39 54 64 54 81 72 58 59 50 50 60 60 53 52 49 41 34 43 49 46 40 35 32 33 39 52 57 65 80 87 88 88 83
4 3 7 12 19 25 17 19 12 9 13 13 17 36 37 35 36 46 50 54 49 50 62 75 65 50 42 40 40 47 45 38 30 31 31 34 43 55 66 76 91 91 84 79
6 9 2 9 14 9 9 8 11 23 34 29 33 40 45 46 50 48 49 64 57 62 68 75 65 53 47 44 41 41 38 30 25 25 28 31 38 48 59 68 67 67 67 61
31 9 6 4 4 21 18 2 3 7 28 19 20 29 40 38 39 65 40 41 60 62 55 46 44 43 43 39 34 30 26 22 18 20 25 27 34 41 45 51 52 56 51 49
11 19 9 3 3 11 11 4 5 7 11 9 7 17 24 36 25 30 59 78 75 53 38 45 42 44 39 30 23 17 15 18 21 23 31 37 47 56 58 58 54 53 43 42
4 4 25 12 10 19 26 27 21 9 10 9 28 52 57 25 32 68 69 79 52 31 27 31 14 19 19 17 16 13 18 28 34 42 51 55 56 56 51 47 46 38 37 39
15 15 9 4 5 20 35 1 12 10 15 40 65 67 55 65 66 66 54 49 34 23 18 11 9 8 6 14 21 31 42 48 50 51 55 55 53 45 51 45 35 30 33 33
8 15 10 23 17 15 26 32 43 52 62 74 71 66 71 68 58 44 52 35 25 20 12 8 4 2 13 24 29 40 49 57 63 63 55 49 46 37 42 42 36 33 29 30
11 25 9 3 17 48 69 70 67 73 81 73 53 53 59 55 47 41 35 31 20 10 9 6 7 9 25 26 34 45 49 50 54 56 57 50 46 38 35 31 26 28 30 32
16 20 11 23 58 63 83 37 23 40 35 40 37 52 57 42 38 34 24 22 13 10 7 9 14 29 36 31 33 36 28 23 27 30 29 26 26 26 28 29 27 27 28 28
40 22 19 26 40 39 54 58 52 44 57 52 56 56 28 32 31 22 10 15 17 22 23 30 33 38 31 28 29 27 26 21 20 20 21 22 23 22 21 23 30 31 31 31
Wind_Direction_500mb
8 50 21 332 358 296 283 298 295 308 312 321 295 276 272 283 297 302 301 297 293 277 267 261 250 245 225 221 223 222 222 225 222 223 221 217 219 217 218 221 224 231 233 235
20 46 349 341 12 352 324 303 309 304 329 325 308 287 269 269 261 270 280 284 277 272 259 255 257 249 239 227 224 227 224 224 225 226 226 222 221 223 221 223 226 228 234 234
99 276 348 16 347 351 327 296 329 317 321 303 354 296 304 255 236 252 259 269 276 275 276 276 269 276 247 235 227 228 227 226 224 227 225 227 223 222 223 225 225 225 231 235
256 305 351 334 324 11 321 337 332 318 332 296 26 292 309 307 306 274 261 258 266 279 279 273 274 269 265 256 234 234 231 229 227 225 225 225 226 225 232 229 224 225 229 234
270 307 324 324 272 338 257 312 304 296 286 332 293 266 268 307 286 290 340 341 347 317 311 294 290 269 262 267 248 235 234 234 231 226 227 227 229 237 235 230 229 226 226 231
258 287 219 235 293 277 277 327 314 327 44 24 276 319 288 276 340 329 337 2 20 25 2 14 268 262 258 244 262 234 236 238 235 234 229 230 233 236 233 231 231 228 224 229
324 296 289 336 323 314 25 25 330 342 352 235 271 318 248 286 300 334 325 1 14 18 18 25 30 21 270 242 255 251 245 244 240 238 236 235 237 237 238 237 232 231 223 226
57 333 313 54 176 269 299 156 178 274 302 292 301 258 245 246 325 323 320 351 4 8 4 6 15 15 12 357 274 244 248 249 254 252 243 239 239 236 237 242 237 232 231 227
22 270 314 313 292 345 301 359 224 258 265 274 232 273 297 275 197 292 341 357 4 1 3 2 3 4 2 358 353 317 237 234 234 252 248 246 246 242 239 239 245 237 232 231
247 299 252 290 329 277 203 301 356 337 309 292 281 282 250 286 271 337 336 1 350 347 344 337 342 345 348 346 344 343 295 250 229 235 236 244 247 244 243 239 239 233 228 230
158 152 287 13 196 242 337 317 11 122 214 271 304 275 227 254 247 313 313 334 331 327 329 326 321 322 323 328 332 331 327 277 244 222 235 235 232 241 246 238 238 232 230 231
211 192 279 252 278 258 212 264 177 146 283 295 305 274 247 259 295 338 320 316 316 318 317 312 312 311 311 315 321 323 324 312 266 227 218 232 236 236 239 227 243 235 233 218
198 272 323 336 356 357 149 193 164 314 288 259 254 267 237 317 310 295 301 300 301 305 303 302 302 302 303 307 311 317 315 311 286 255 238 221 228 231 231 228 255 251 235 206
181 202 185 229 246 196 282 260 261 239 260 282 245 271 282 281 290 294 291 291 293 294 295 300 302 305 305 299 303 310 307 304 294 264 248 243 222 222 233 233 231 221 209 192
171 244 228 248 265 271 271 277 275 250 251 248 271 268 275 284 292 293 292 288 287 290 298 304 306 306 306 292 300 307 303 297 289 269 250 242 244 231 224 232 222 218 210 201
151 267 327 290 270 265 277 272 267 260 261 250 259 273 269 275 280 285 287 284 276 282 294 309 312 309 297 290 303 308 303 294 284 272 258 243 238 234 227 215 214 202 196 192
218 144 357 269 331 310 291 251 214 242 212 209 243 257 291 295 283 292 303 292 281 284 295 300 294 301 299 302 306 306 299 289 281 271 259 244 234 228 223 199 196 188 187 181
217 133 233 281 340 337 241 295 192 252 266 252 261 271 279 282 288 284 296 298 290 299 297 290 281 283 285 286 292 296 290 284 274 262 250 236 226 217 208 199 182 175 167 160
222 184 281 261 192 291 299 331 128 140 298 236 249 269 276 287 309 296 309 308 297 290 292 293 276 271 266 261 276 281 280 261 246 235 221 210 204 191 177 164 156 144 134 130
179 202 172 64 164 251 243 294 130 115 283 270 274 279 289 307 304 302 324 317 321 302 274 294 276 257 240 251 264 248 243 212 189 180 168 162 155 149 149 144 136 131 141 136
101 201 224 221 255 274 253 265 252 70 257 277 310 313 305 295 281 297 313 324 324 308 293 301 269 216 231 256 238 209 183 160 145 145 139 139 134 131 132 131 126 132 149 148
177 164 200 144 193 273 201 16 175 231 294 312 314 314 316 307 308 313 320 328 322 309 308 276 217 229 221 186 174 158 148 142 141 140 137 130 122 130 134 135 139 152 159 154
249 197 181 193 224 250 190 243 271 283 293 296 300 306 322 318 323 335 341 342 331 302 282 275 280 256 177 164 168 157 146 138 131 126 123 131 132 135 131 131 136 163 166 169
245 207 224 101 249 254 268 276 283 285 283 293 296 303 324 323 326 337 350 353 353 325 268 246 157 155 143 140 145 134 131 139 141 135 138 147 142 139 154 159 166 168 177 181
203 160 192 254 270 277 276 273 287 308 302 298 292 305 312 319 328 329 346 2 27 55 84 151 148 138 138 139 138 142 146 150 136 144 151 156 158 173 175 173 177 179 186 193
211 218 218 249 253 248 268 281 293 296 299 304 306 310 298 312 323 319 325 13 84 106 107 115 131 145 148 151 152 162 174 169 168 176 176 177 180 182 183 191 190 188 189 200
Wind_Speed_850mb
16 18 15 12 8 11 12 14 18 22 28 38 31 28 22 33 50 31 40 41 34 21 7 30 68 72 72 86 85 85 85 83 83 80 83 81 83 70 66 66 61 58 54 46
14 10 12 12 14 15 16 13 14 19 37 34 33 42 28 29 31 44 46 48 50 43 37 26 26 64 78 71 80 91 90 87 86 85 85 87 83 74 67 68 67 66 59 50
7 6 19 13 16 17 17 12 16 23 34 24 25 19 14 18 34 41 43 45 48 50 52 51 44 33 60 81 78 82 90 93 88 85 81 90 81 72 75 77 76 71 66 57
2 9 10 17 10 7 18 10 25 33 26 10 16 14 29 39 26 13 28 37 48 58 65 68 68 59 44 52 82 87 88 90 90 87 86 86 95 98 95 88 85 79 70 62
9 10 19 12 8 5 15 16 21 35 28 11 10 9 13 18 21 24 29 48 37 45 42 53 62 69 67 46 57 84 92 92 96 94 89 86 88 89 81 79 83 87 76 69
12 15 5 7 8 8 17 12 29 7 1 4 13 4 9 10 5 26 48 34 29 42 27 36 13 44 38 28 33 70 80 85 94 93 94 89 85 82 78 78 70 82 85 79
13 9 8 2 9 11 11 10 8 11 8 10 10 15 12 34 27 28 16 35 47 52 54 52 51 21 10 68 66 44 42 68 82 90 93 93 88 80 77 72 70 68 83 86
5 16 3 3 2 9 10 8 6 10 9 24 25 14 13 20 26 9 16 25 44 64 61 47 48 49 51 35 21 53 52 52 53 74 85 91 90 85 76 66 65 70 69 71
6 11 9 8 6 2 6 3 11 9 23 10 10 15 18 34 11 9 26 39 46 61 69 47 48 50 52 51 43 24 36 63 71 75 81 83 85 80 75 70 55 62 65 61
5 13 7 10 9 12 9 6 5 5 9 11 12 24 21 19 17 14 25 32 48 57 67 61 59 54 57 58 55 44 27 28 65 76 83 74 75 77 70 60 57 70 66 68
7 8 12 8 5 6 8 6 3 5 5 8 18 19 12 22 10 20 27 33 46 56 72 62 66 64 66 64 61 52 43 31 30 61 76 81 77 62 67 65 62 69 71 78
12 7 9 18 20 15 12 8 7 5 8 8 17 35 11 37 24 33 46 67 68 69 68 77 81 70 65 65 60 53 49 35 36 38 59 75 74 73 74 68 50 86 111 83
7 5 10 19 12 10 3 8 1 6 7 27 14 26 6 23 48 69 71 78 71 60 76 86 76 69 64 59 52 55 48 43 35 44 37 61 72 71 69 71 63 76 62 63
11 10 16 16 19 4 29 27 26 13 14 26 39 66 68 57 45 57 53 63 71 80 79 75 69 59 54 52 47 51 47 44 39 37 49 41 62 74 78 72 66 60 57 61
12 11 13 33 42 39 48 53 39 34 44 25 66 38 57 56 50 60 71 63 66 74 76 69 66 60 55 44 45 48 46 40 39 32 36 53 50 65 70 77 76 77 71 69
3 10 6 32 31 33 46 48 41 42 43 39 54 64 54 81 72 58 59 50 50 60 60 53 52 49 41 34 43 49 46 40 35 32 33 39 52 57 65 80 87 88 88 83
4 3 7 12 19 25 17 19 12 9 13 13 17 36 37 35 36 46 50 54 49 50 62 75 65 50 42 40 40 47 45 38 30 31 31 34 43 55 66 76 91 91 84 79
6 9 2 9 14 9 9 8 11 23 34 29 33 40 45 46 50 48 49 64 57 62 68 75 65 53 47 44 41 41 38 30 25 25 28 31 38 48 59 68 67 67 67 61
31 9 6 4 4 21 18 2 3 7 28 19 20 29 40 38 39 65 40 41 60 62 55 46 44 43 43 39 34 30 26 22 18 20 25 27 34 41 45 51 52 56 51 49
11 19 9 3 3 11 11 4 5 7 11 9 7 17 24 36 25 30 59 78 75 53 38 45 42 44 39 30 23 17 15 18 21 23 31 37 47 56 58 58 54 53 43 42
4 4 25 12 10 19 26 27 21 9 10 9 28 52 57 25 32 68 69 79 52 31 27 31 14 19 19 17 16 13 18 28 34 42 51 55 56 56 51 47 46 38 37 39
15 15 9 4 5 20 35 1 12 10 15 40 65 67 55 65 66 66 54 49 34 23 18 11 9 8 6 14 21 31 42 48 50 51 55 55 53 45 51 45 35 30 33 33
8 15 10 23 17 15 26 32 43 52 62 74 71 66 71 68 58 44 52 35 25 20 12 8 4 2 13 24 29 40 49 57 63 63 55 49 46 37 42 42 36 33 29 30
11 25 9 3 17 48 69 70 67 73 81 73 53 53 59 55 47 41 35 31 20 10 9 6 7 9 25 26 34 45 49 50 54 56 57 50 46 38 35 31 26 28 30 32
16 20 11 23 58 63 83 37 23 40 35 40 37 52 57 42 38 34 24 22 13 10 7 9 14 29 36 31 33 36 28 23 27 30 29 26 26 26 28 29 27 27 28 28
40 22 19 26 40 39 54 58 52 44 57 52 56 56 28 32 31 22 10 15 17 22 23 30 33 38 31 28 29 27 26 21 20 20 21 22 23 22 21 23 30 31 31 31
Wind_Direction_850mb
8 50 21 332 358 296 283 298 295 308 312 321 295 276 272 283 297 302 301 297 293 277 267 261 250 245 225 221 223 222 222 225 222 223 221 217 219 217 218 221 224 231 233 235
20 46 349 341 12 352 324 303 309 304 329 325 308 287 269 269 261 270 280 284 277 272 259 255 257 249 239 227 224 227 224 224 225 226 226 222 221 223 221 223 226 228 234 234
99 276 348 16 347 351 327 296 329 317 321 303 354 296 304 255 236 252 259 269 276 275 276 276 269 276 247 235 227 228 227 226 224 227 225 227 223 222 223 225 225 225 231 235
256 305 351 334 324 11 321 337 332 318 332 296 26 292 309 307 306 274 261 258 266 279 279 273 274 269 265 256 234 234 231 229 227 225 225 225 226 225 232 229 224 225 229 234
270 307 324 324 272 338 257 312 304 296 286 332 293 266 268 307 286 290 340 341 347 317 311 294 290 269 262 267 248 235 234 234 231 226 227 227 229 237 235 230 229 226 226 231
258 287 219 235 293 277 277 327 314 327 44 24 276 319 288 276 340 329 337 2 20 25 2 14 268 262 258 244 262 234 236 238 235 234 229 230 233 236 233 231 231 228 224 229
324 296 289 336 323 314 25 25 330 342 352 235 271 318 248 286 300 334 325 1 14 18 18 25 30 21 270 242 255 251 245 244 240 238 236 235 237 237 238 237 232 231 223 226
57 333 313 54 176 269 299 156 178 274 302 292 301 258 245 246 325 323 320 351 4 8 4 6 15 15 12 357 274 244 248 249 254 252 243 239 239 236 237 242 237 232 231 227
22 270 314 313 292 345 301 359 224 258 265 274 232 273 297 275 197 292 341 357 4 1 3 2 3 4 2 358 353 317 237 234 234 252 248 246 246 242 239 239 245 237 232 231
247 299 252 290 329 277 203 301 356 337 309 292 281 282 250 286 271 337 336 1 350 347 344 337 342 345 348 346 344 343 295 250 229 235 236 244 247 244 243 239 239 233 228 230
158 152 287 13 196 242 337 317 11 122 214 271 304 275 227 254 247 313 313 334 331 327 329 326 321 322 323 328 332 331 327 277 244 222 235 235 232 241 246 238 238 232 230 231
211 192 279 252 278 258 212 264 177 146 283 295 305 274 247 259 295 338 320 316 316 318 317 312 312 311 311 315 321 323 324 312 266 227 218 232 236 236 239 227 243 235 233 218
198 272 323 336 356 357 149 193 164 314 288 259 254 267 237 317 310 295 301 300 301 305 303 302 302 302 303 307 311 317 315 311 286 255 238 221 228 231 231 228 255 251 235 206
181 202 185 229 246 196 282 260 261 239 260 282 245 271 282 281 290 294 291 291 293 294 295 300 302 305 305 299 303 310 307 304 294 264 248 243 222 222 233 233 231 221 209 192
171 244 228 248 265 271 271 277 275 250 251 248 271 268 275 284 292 293 292 288 287 290 298 304 306 306 306 292 300 307 303 297 289 269 250 242 244 231 224 232 222 218 210 201
151 267 327 290 270 265 277 272 267 260 261 250 259 273 269 275 280 285 287 284 276 282 294 309 312 309 297 290 303 308 303 294 284 272 258 243 238 234 227 215 214 202 196 192
218 144 357 269 331 310 291 251 214 242 212 209 243 257 291 295 283 292 303 292 281 284 295 300 294 301 299 302 306 306 299 289 281 271 259 244 234 228 223 199 196 188 187 181
217 133 233 281 340 337 241 295 192 252 266 252 261 271 279 282 288 284 296 298 290 299 297 290 281 283 285 286 292 296 290 284 274 262 250 236 226 217 208 199 182 175 167 160
222 184 281 261 192 291 299 331 128 140 298 236 249 269 276 287 309 296 309 308 297 290 292 293 276 271 266 261 276 281 280 261 246 235 221 210 204 191 177 164 156 144 134 130
179 202 172 64 164 251 243 294 130 115 283 270 274 279 289 307 304 302 324 317 321 302 274 294 276 257 240 251 264 248 243 212 189 180 168 162 155 149 149 144 136 131 141 136
101 201 224 221 255 274 253 265 252 70 257 277 310 313 305 295 281 297 313 324 324 308 293 301 269 216 231 256 238 209 183 160 145 145 139 139 134 131 132 131 126 132 149 148
177 164 200 144 193 273 201 16 175 231 294 312 314 314 316 307 308 313 320 328 322 309 308 276 217 229 221 186 174 158 148 142 141 140 137 130 122 130 134 135 139 152 159 154
249 197 181 193 224 250 190 243 271 283 293 296 300 306 322 318 323 335 341 342 331 302 282 275 280 256 177 164 168 157 146 138 131 126 123 131 132 135 131 131 136 163 166 169
245 207 224 101 249 254 268 276 283 285 283 293 296 303 324 323 326 337 350 353 353 325 268 246 157 155 143 140 145 134 131 139 141 135 138 147 142 139 154 159 166 168 177 181
203 160 192 254 270 277 276 273 287 308 302 298 292 305 312 319 328 329 346 2 27 55 84 151 148 138 138 139 138 142 146 150 136 144 151 156 158 173 175 173 177 179 186 193
211 218 218 249 253 248 268 281 293 296 299 304 306 310 298 312 323 319 325 13 84 106 107 115 131 145 148 151 152 162 174 169 168 176 176 177 180 182 183 191 190 188 189 200